Location: Clyde
(45.1830°S, 169.3170°E)
Time: 09:38:10
(UTC+12:00)

Cosmos 2219 Rocket - Pass Details

Date: 14 May 2021
Orbit: 827 x 847 km, 71.0° (Epoch: 15 June)

Event Time Altitude Azimuth Distance (km) Brightness Sun altitude
Rises 19:29:05 0° 297° (WNW) 3,383 6.5 -21.8°
Reaches altitude 10° 19:31:57 10° 284° (WNW) 2,453 5.7 -22.3°
Maximum altitude 19:36:32 25° 229° (SW) 1,636 4.1 -23.1°
Drops below altitude 10° 19:41:10 10° 174° (S) 2,467 4.5 -24.0°
Enters shadow 19:42:15 - 168° (SSE) 2,805 4.8 -24.2°
